EAG5501 SBJV-SBSP

Flight info

Callsign EAG5501
Flight time 0h 37m
Altitude 31000
Route DULIA UM400 KOXAG UM540 ANISE
Aircraft B38M/M-SDE1FGHILORVWXY/HB1

Departure

Time 2026-05-05 11:54
Airport Lauro Carneiro de Loyola Airport (SBJV)

Arrival

Time 2026-05-05 12:32
Airport Congonhas–Deputado Freitas Nobre Airport (SBSP)
Time Latitude Longitude Altitude Speed Heading
2026-05-05 11:52 -26.22889 -48.79125 32 ft 0 kts 309°
2026-05-05 11:52 -26.22392 -48.79810 28 ft 0 kts 128°
2026-05-05 11:52 -26.22421 -48.79772 27 ft 21 kts 131°
2026-05-05 11:52 -26.22559 -48.79580 27 ft 41 kts 129°
2026-05-05 11:53 -26.22746 -48.79323 30 ft 43 kts 128°
2026-05-05 11:53 -26.22894 -48.79092 32 ft 2 kts 136°
2026-05-05 11:53 -26.22902 -48.79092 33 ft 3 kts 186°
2026-05-05 11:53 -26.22902 -48.79118 33 ft 5 kts 327°
2026-05-05 11:54 -26.22865 -48.79158 32 ft 11 kts 308°
2026-05-05 11:54 -26.22642 -48.79467 27 ft 97 kts 309°
2026-05-05 11:54 -26.22052 -48.80286 58 ft 167 kts 308°
2026-05-05 11:54 -26.21318 -48.81322 965 ft 165 kts 308°
2026-05-05 11:55 -26.20598 -48.82316 1960 ft 169 kts 309°
2026-05-05 11:55 -26.19752 -48.83308 2481 ft 191 kts 324°
2026-05-05 11:55 -26.18418 -48.83773 2991 ft 219 kts
2026-05-05 11:55 -26.16993 -48.83148 3949 ft 218 kts 38°
2026-05-05 11:56 -26.15789 -48.82090 4951 ft 227 kts 32°
2026-05-05 11:56 -26.14458 -48.81062 5783 ft 235 kts 31°
2026-05-05 11:56 -26.13104 -48.80015 6793 ft 238 kts 30°
2026-05-05 11:56 -26.11729 -48.78946 7672 ft 243 kts 31°
2026-05-05 11:57 -26.10352 -48.77871 8582 ft 247 kts 32°
2026-05-05 11:57 -26.08935 -48.76764 9493 ft 251 kts 32°
2026-05-05 11:57 -26.07495 -48.75639 10378 ft 255 kts 33°
2026-05-05 11:57 -26.06030 -48.74496 11199 ft 259 kts 33°
2026-05-05 11:58 -26.04544 -48.73337 12004 ft 262 kts 34°
2026-05-05 11:58 -26.03038 -48.72160 12800 ft 267 kts 35°
2026-05-05 11:58 -26.01695 -48.70669 13315 ft 283 kts 60°
2026-05-05 11:58 -26.01038 -48.68552 13779 ft 299 kts 82°
2026-05-05 11:59 -26.00707 -48.66226 14157 ft 318 kts 81°
2026-05-05 11:59 -26.00325 -48.63731 14476 ft 339 kts 82°
2026-05-05 11:59 -25.99923 -48.61067 14764 ft 359 kts 82°
2026-05-05 11:59 -25.99501 -48.58258 15037 ft 377 kts 82°
2026-05-05 12:00 -25.99060 -48.55320 15402 ft 390 kts 82°
2026-05-05 12:00 -25.98617 -48.52365 16013 ft 393 kts 82°
2026-05-05 12:00 -25.98162 -48.49344 16595 ft 399 kts 82°
2026-05-05 12:00 -25.97701 -48.46275 17175 ft 403 kts 83°
2026-05-05 12:01 -25.97234 -48.43182 17752 ft 408 kts 83°
2026-05-05 12:01 -25.96749 -48.40068 18363 ft 411 kts 79°
2026-05-05 12:01 -25.95764 -48.37067 18840 ft 418 kts 66°
2026-05-05 12:01 -25.94558 -48.34117 19337 ft 421 kts 67°
2026-05-05 12:02 -25.93335 -48.31143 19832 ft 424 kts 66°
2026-05-05 12:02 -25.92092 -48.28156 20337 ft 427 kts 66°
2026-05-05 12:02 -25.90855 -48.25196 20824 ft 430 kts 66°
2026-05-05 12:02 -25.89585 -48.22163 21323 ft 433 kts 66°
2026-05-05 12:03 -25.88309 -48.19119 21827 ft 435 kts 66°
2026-05-05 12:03 -25.86735 -48.16271 22577 ft 430 kts 50°
2026-05-05 12:03 -25.84821 -48.13781 23670 ft 417 kts 50°
2026-05-05 12:03 -25.82965 -48.11372 24554 ft 407 kts 49°
2026-05-05 12:04 -25.81143 -48.09038 25167 ft 404 kts 49°
2026-05-05 12:04 -25.79288 -48.06681 25662 ft 405 kts 49°
2026-05-05 12:04 -25.77424 -48.04323 26085 ft 408 kts 48°
2026-05-05 12:04 -25.75538 -48.01942 26469 ft 412 kts 48°
2026-05-05 12:05 -25.73637 -47.99543 26858 ft 415 kts 48°
2026-05-05 12:05 -25.71718 -47.97124 27249 ft 418 kts 48°
2026-05-05 12:05 -25.69787 -47.94691 27639 ft 421 kts 48°
2026-05-05 12:05 -25.67869 -47.92275 28015 ft 424 kts 48°
2026-05-05 12:06 -25.65915 -47.89816 28392 ft 427 kts 48°
2026-05-05 12:06 -25.63944 -47.87336 28763 ft 430 kts 48°
2026-05-05 12:06 -25.61957 -47.84838 29126 ft 433 kts 48°
2026-05-05 12:06 -25.60631 -47.83171 29352 ft 435 kts 48°
2026-05-05 12:07 -25.58622 -47.80647 29725 ft 437 kts 48°
2026-05-05 12:07 -25.56600 -47.78109 30083 ft 440 kts 48°
2026-05-05 12:07 -25.54568 -47.75559 30387 ft 443 kts 48°
2026-05-05 12:07 -25.51857 -47.72159 30785 ft 446 kts 48°
2026-05-05 12:08 -25.50466 -47.70416 30980 ft 448 kts 48°
2026-05-05 12:08 -25.48421 -47.67854 31175 ft 453 kts 48°
2026-05-05 12:08 -25.44163 -47.62524 31174 ft 471 kts 48°
2026-05-05 12:09 -25.39950 -47.56819 31166 ft 486 kts 62°
2026-05-05 12:09 -25.36955 -47.49982 31169 ft 501 kts 65°
2026-05-05 12:10 -25.33911 -47.42976 31173 ft 509 kts 65°
2026-05-05 12:10 -25.30870 -47.35951 31178 ft 509 kts 65°
2026-05-05 12:11 -25.27801 -47.28872 31180 ft 509 kts 65°
2026-05-05 12:11 -25.24760 -47.21869 31183 ft 509 kts 65°
2026-05-05 12:12 -25.21691 -47.14811 31184 ft 509 kts 65°
2026-05-05 12:12 -25.18616 -47.07751 31183 ft 509 kts 65°
2026-05-05 12:13 -25.15446 -47.00810 31175 ft 509 kts 57°
2026-05-05 12:13 -25.13232 -46.97784 31152 ft 506 kts 43°
2026-05-05 12:13 -25.10482 -46.95412 30305 ft 502 kts 30°
2026-05-05 12:14 -25.07449 -46.93419 28830 ft 513 kts 30°
2026-05-05 12:14 -25.04375 -46.91380 27927 ft 512 kts 30°
2026-05-05 12:14 -25.01365 -46.89400 27085 ft 509 kts 30°
2026-05-05 12:14 -24.98300 -46.87390 26137 ft 510 kts 30°
2026-05-05 12:15 -24.95259 -46.85398 25420 ft 505 kts 30°
2026-05-05 12:15 -24.92258 -46.83434 24693 ft 501 kts 31°
2026-05-05 12:15 -24.89260 -46.81473 23958 ft 498 kts 31°
2026-05-05 12:15 -24.86323 -46.79554 23164 ft 495 kts 31°
2026-05-05 12:16 -24.83369 -46.77624 22503 ft 489 kts 31°
2026-05-05 12:16 -24.80459 -46.75724 21844 ft 482 kts 31°
2026-05-05 12:16 -24.77585 -46.73848 21124 ft 478 kts 31°
2026-05-05 12:16 -24.74736 -46.71990 20542 ft 471 kts 31°
2026-05-05 12:17 -24.71928 -46.70159 19769 ft 470 kts 31°
2026-05-05 12:17 -24.69173 -46.68363 19224 ft 463 kts 31°
2026-05-05 12:17 -24.66421 -46.66570 18710 ft 456 kts 31°
2026-05-05 12:17 -24.63698 -46.64798 18104 ft 451 kts 31°
2026-05-05 12:18 -24.60872 -46.63343 17474 ft 445 kts 17°
2026-05-05 12:18 -24.57886 -46.62761 16934 ft 438 kts
2026-05-05 12:18 -24.54858 -46.62650 16251 ft 435 kts
2026-05-05 12:18 -24.51846 -46.62597 15785 ft 428 kts
2026-05-05 12:19 -24.48896 -46.62574 15394 ft 419 kts 360°
2026-05-05 12:19 -24.46002 -46.62566 15037 ft 411 kts 360°
2026-05-05 12:19 -24.43166 -46.62564 14679 ft 403 kts 360°
2026-05-05 12:19 -24.40413 -46.62564 14316 ft 397 kts 360°
2026-05-05 12:20 -24.37661 -46.62564 13950 ft 391 kts 360°
2026-05-05 12:20 -24.34959 -46.62565 13590 ft 384 kts 360°
2026-05-05 12:20 -24.32311 -46.62567 13279 ft 377 kts 359°
2026-05-05 12:20 -24.29702 -46.62568 12973 ft 369 kts 359°
2026-05-05 12:21 -24.27191 -46.62570 12659 ft 363 kts 359°
2026-05-05 12:21 -24.24678 -46.62571 12363 ft 357 kts 359°
2026-05-05 12:21 -24.22226 -46.62573 12058 ft 351 kts 359°
2026-05-05 12:21 -24.19795 -46.62575 11743 ft 346 kts 359°
2026-05-05 12:22 -24.17400 -46.62576 11473 ft 340 kts 359°
2026-05-05 12:22 -24.15078 -46.62578 11204 ft 335 kts 359°
2026-05-05 12:22 -24.12758 -46.62579 10928 ft 330 kts 359°
2026-05-05 12:22 -24.10481 -46.62581 10666 ft 325 kts 359°
2026-05-05 12:23 -24.08231 -46.62582 10395 ft 321 kts 359°
2026-05-05 12:23 -24.06004 -46.62584 10128 ft 318 kts 359°
2026-05-05 12:23 -24.03798 -46.62585 9831 ft 314 kts 359°
2026-05-05 12:23 -24.01647 -46.62586 9567 ft 310 kts 359°
2026-05-05 12:24 -23.99503 -46.62588 9298 ft 306 kts 359°
2026-05-05 12:24 -23.97388 -46.62589 9040 ft 302 kts 359°
2026-05-05 12:24 -23.95303 -46.62590 8786 ft 297 kts 359°
2026-05-05 12:24 -23.93247 -46.62592 8551 ft 293 kts 359°
2026-05-05 12:25 -23.91224 -46.62593 8269 ft 288 kts 359°
2026-05-05 12:25 -23.89263 -46.62559 7966 ft 282 kts
2026-05-05 12:25 -23.87444 -46.61881 7663 ft 273 kts 31°
2026-05-05 12:25 -23.86016 -46.60561 7354 ft 264 kts 43°
2026-05-05 12:26 -23.84694 -46.59219 7128 ft 254 kts 42°
2026-05-05 12:26 -23.83420 -46.57953 6936 ft 242 kts 41°
2026-05-05 12:26 -23.82217 -46.56764 6801 ft 227 kts 41°
2026-05-05 12:26 -23.81095 -46.55662 6657 ft 206 kts 41°
2026-05-05 12:27 -23.79908 -46.54922 6393 ft 192 kts
2026-05-05 12:27 -23.78611 -46.54989 6077 ft 187 kts 341°
2026-05-05 12:27 -23.77427 -46.55523 5819 ft 181 kts 330°
2026-05-05 12:27 -23.76395 -46.56157 5611 ft 162 kts 328°
2026-05-05 12:28 -23.75464 -46.56778 5404 ft 153 kts 327°
2026-05-05 12:28 -23.74567 -46.57388 5200 ft 152 kts 326°
2026-05-05 12:28 -23.73678 -46.58001 4988 ft 150 kts 326°
2026-05-05 12:28 -23.72798 -46.58610 4779 ft 150 kts 327°
2026-05-05 12:29 -23.71920 -46.59219 4580 ft 149 kts 327°
2026-05-05 12:29 -23.71054 -46.59820 4385 ft 149 kts 327°
2026-05-05 12:29 -23.70180 -46.60427 4189 ft 148 kts 327°
2026-05-05 12:29 -23.69313 -46.61031 3995 ft 147 kts 327°
2026-05-05 12:30 -23.68450 -46.61630 3821 ft 147 kts 327°
2026-05-05 12:30 -23.67587 -46.62229 3621 ft 147 kts 328°
2026-05-05 12:30 -23.66729 -46.62825 3419 ft 147 kts 328°
2026-05-05 12:30 -23.65875 -46.63418 3203 ft 146 kts 329°
2026-05-05 12:31 -23.65003 -46.64027 2991 ft 153 kts 328°
2026-05-05 12:31 -23.64093 -46.64670 2784 ft 156 kts 330°
2026-05-05 12:31 -23.63193 -46.65288 2617 ft 146 kts 330°
2026-05-05 12:31 -23.62488 -46.65770 2607 ft 86 kts 327°
2026-05-05 12:32 -23.62206 -46.65968 2602 ft 16 kts 315°
2026-05-05 12:32 -23.62206 -46.66024 2601 ft 4 kts 238°
2026-05-05 12:32 -23.62226 -46.66041 2602 ft 4 kts 200°
2026-05-05 12:32 -23.62252 -46.66041 2602 ft 4 kts 167°
2026-05-05 12:33 -23.62279 -46.66023 2602 ft 5 kts 147°
2026-05-05 12:33 -23.62316 -46.65997 2603 ft 7 kts 147°
2026-05-05 12:33 -23.62352 -46.66000 2603 ft 5 kts 228°
2026-05-05 12:33 -23.62377 -46.66033 2603 ft 7 kts 229°
2026-05-05 12:34 -23.62387 -46.66047 2603 ft 0 kts 231°